Home   Weather   Honolulu   Past weeks

Flag for USA Past Weather in Honolulu, Hawaii, USA — Yesterday and Last 2 Weeks

Now
75 °F

More clouds than sun.


Feels Like: 75 °F
Forecast: 65 / 77 °F
Wind: No wind

Location: Honolulu International Airport

Current Time: Dec 4, 2016 at 10:42:32 am

Latest Report: Dec 4, 2016 at 9:53 am


Visibility: 10 mi

Pressure: 29.90 "Hg

Humidity: 82%

Dew Point: 69 °F

Location of HonoluluLocation

Past Weather in Honolulu — Graph

°F

Honolulu Temperature Yesterday

Maximum temperature yesterday: 81 °F (at 10:53 am)
Minimum temperature yesterday: 69 °F (at 10:53 pm)
Average temperature yesterday: 74 °F

High & Low Weather Summary for the Past Weeks

 TemperatureHumidityPressure
High83 °F (Nov 20, 12:53 pm)94% (Nov 21, 10:02 am)30.16 "Hg (Nov 21, 10:02 am)
Low68 °F (Dec 4, 12:53 am)41% (Nov 26, 12:53 pm)29.80 "Hg (Dec 3, 1:53 pm)
Average75 °F70%30.03 "Hg
* Reported Nov 19 8:53 am — Dec 4 8:53 am, Honolulu, Weather by CustomWeather, © 2016

Note: Actual official high and low records may vary slightly from our data, if they occured in-between our weather recording intervals... More about our weather records

Advertising

Honolulu Weather History for the Previous 24 Hours

Scroll right to see more
 ConditionsComfort  
Time TempWeatherWind HumidityBarometerVisibility
8:53 am
Sun, Dec 4
72 °FOvercast.3 mph87%29.89 "Hg10 mi
7:53 am71 °FMore clouds than sun.6 mph84%29.90 "Hg10 mi
6:53 am70 °FPassing clouds.7 mph87%29.87 "Hg10 mi
5:53 am69 °FPassing clouds.5 mph90%29.86 "Hg10 mi
4:53 am68 °FPassing clouds.No wind90%29.85 "Hg10 mi
3:53 am68 °FPassing clouds.3 mph90%29.83 "Hg10 mi
2:53 am68 °FPassing clouds.7 mph90%29.83 "Hg10 mi
1:53 am68 °FPassing clouds.No wind90%29.84 "Hg10 mi
12:53 am68 °FPassing clouds.3 mph90%29.84 "Hg10 mi
11:53 pm
Sat, Dec 3
70 °FPassing clouds.5 mph90%29.85 "Hg10 mi
10:53 pm69 °FPassing clouds.No wind90%29.85 "Hg10 mi
9:53 pm71 °FPassing clouds.3 mph84%29.86 "Hg10 mi
8:53 pm71 °FPassing clouds.3 mph84%29.85 "Hg10 mi
7:53 pm70 °FPassing clouds.3 mph87%29.85 "Hg10 mi
6:53 pm72 °FPassing clouds.No wind81%29.84 "Hg10 mi
5:53 pm73 °FPartly cloudy.3 mph81%29.83 "Hg10 mi
4:53 pm75 °FBroken clouds.No wind71%29.83 "Hg10 mi
3:53 pm74 °FLight rain. Broken clouds.9 mph71%29.82 "Hg10 mi
2:53 pm80 °FBroken clouds.13 mph69%29.80 "Hg10 mi
1:53 pm81 °FBroken clouds.14 mph69%29.80 "Hg10 mi
12:53 pm81 °FBroken clouds.12 mph69%29.82 "Hg10 mi
11:53 am80 °FBroken clouds.7 mph67%29.85 "Hg10 mi
10:53 am81 °FBroken clouds.No wind60%29.88 "Hg10 mi
Weather by CustomWeather, © 2016

See weather overviewHow to use our weather pages